www.pogodaiklimat.ru

Погода и климат >> Архив погоды >> Россия >> Краснодарский край >> Сочи аэропорт (Адлер)


ПОГОДА в Сочи аэропорт (Адлере)

  • Прогноз погоды в Сочи аэропорт (Адлере)
  • Монитор погоды в Сочи аэропорт (Адлере)

АРХИВ ПОГОДЫ в Сочи аэропорт (Адлере)

Время (UTC), дата Ветер
(напр.,м/с)
 
Видим.   Явления Облачность Т
(С)
Тd
(С)
f
(%)
Тe
(С)
Тes
(С)
Комфортность P
(гПа)
Po
(гПа)
Тmin
(С)
Tmax
(С)
R
(мм)
R24
(мм)
S
(см)
18 16.08 В 3 4000 м гроза, ливневой дождь 10/10 1500 м
[Cb cap]
+24.8 +23.4 92 +33 +33 очень
душно
1007.3 1005.6
21 16.08 В 4 4000 м слаб. ливневой дождь {гроза} 10/10 1200 м
[Cb cap]
+25.0 +22.5 86 +33 +33 очень
душно
1007.8 1006.1
00 17.08 ЮВ 4 4000 м {гроза, ливн. осадки} 10/8 660 м
[Sc Ac und]
+25.5 +22.2 82 +33 +33 очень
душно
1007.9 1006.2
03 17.08 В 4 10 км 10/8 1350 м
[Sc Ac und]
+25.2 +22.0 82 +32 +32 очень
душно
1007.5 1005.8 +24.0 3
06 17.08 С 5
{10}
20 км гроза без осадков 10/8 1500 м
[Cb cap Ac und]
+25.7 +22.4 82 +34 +34 очень
душно
1008.8 1007.1
09 17.08 В 3
{14}
10 км ливневой дождь, в посл. час гроза 10/8 1200 м
[Cb cap Ac und]
+23.6 +23.0 96 +31 +32 очень
душно
1009.2 1007.5
12 17.08 Ю 2 10 км {гроза, ливн. осадки} 10/8 1080 м
[Cb cap Ac und]
+25.9 +22.0 79 +33 +34 очень
душно
1009.5 1007.8
15 17.08 З 2 2000 м гроза, ливневой дождь 10/10 210 м
[Cb cap]
+23.0 +22.4 96 +31 +31 очень
душно
1009.3 1007.6 +26.8 105
18 17.08 С 2 4000 м слаб. ливневой дождь {гроза} 10/8 1140 м
[Cb cap Ac und]
+23.0 +22.5 97 +32 +32 очень
душно
1009.5 1007.8
21 17.08 СВ 2 4000 м гроза, ливневой дождь 10/10 300 м
[Cb cap]
+22.6 +22.2 98 +30 +30 очень
душно
1008.8 1007.1
00 18.08 СВ 3 4000 м в посл. час ливневой дождь {гроза} 10/6 900 м
[Cb cap Ac und]
+22.1 +21.2 95 +29 +29 очень
душно
1008.1 1006.4
03 18.08 СВ 5 2000 м гроза, ливневой дождь 10/10 450 м
[Cb cap]
+21.3 +19.2 88 +26 +26 душно 1007.7 1006.0 +21.0 47
06 18.08 СВ 4 20 км гроза, ливневой дождь 10/10 660 м
[Cb cap]
+22.0 +21.4 96 +29 +29 очень
душно
1007.6 1005.9
09 18.08 ЮВ 2 20 км {гроза, ливн. осадки} 9/8 570 м
[Cu Sc Ac trans]
+26.2 +23.0 83 +35 +37 очень
душно
1007.6 1005.9
12 18.08 Ю 1 10 км {гроза, ливн. осадки} 9/3 600 м
[Cu hum Ac trans]
+26.6 +21.9 75 +34 +38 очень
душно
1009.0 1007.3
15 18.08 ЮЗ 1 10 км 3/3 600 м
[Cu hum]
+26.6 +22.2 77 +35 +35 очень
душно
1010.1 1008.4 +28.0 14
18 18.08 В 2 4000 м 9/6 1200 м
[Sc Ac trans]
+24.9 +22.4 86 +33 +33 очень
душно
1012.0 1010.3
21 18.08 В 2 4000 м слаб. ливневой дождь 10/10 1020 м
[Cb cap]
+23.8 +22.6 93 +31 +31 очень
душно
1012.0 1010.3
00 19.08 В 3 4000 м {ливн. осадки} 9/8 930 м
[Cb cap Ac trans]
+23.4 +21.4 89 +32 +32 очень
душно
1012.0 1010.3
03 19.08 В 4 10 км в посл. час ливневой дождь {гроза} 10/10 800 м
[Cb cap]
+22.8 +21.0 90 +30 +30 очень
душно
1013.2 1011.5 +22.6 0.4
06 19.08 ЮВ 3 20 км {ливн. осадки} 5/5 600 м
[Cb cap]
+26.3 +21.7 76 +34 +37 очень
душно
1013.6 1011.8 +22.5
09 19.08 Ю 5 20 км 3/3 600 м
[Cu med, cong]
+26.8 +22.4 77 +35 +41 очень
душно
1014.0 1012.3
12 19.08 ЮЗ 3 20 км 3/3 600 м
[Cb cap]
+27.5 +23.0 76 +37 +43 очень
душно
1013.7 1012.0
15 19.08 З 4 20 км 1/1 600 м
[Cu hum]
+26.6 +22.6 79 +35 +36 очень
душно
1013.2 1011.5 +28.3
18 19.08 З 2 4000 м 10/10 870 м
[Sc]
+25.8 +22.8 84 +34 +34 очень
душно
1015.0 1013.3
21 19.08 СВ 1 4000 м 5/0
[Ac trans]
+24.1 +22.0 88 +31 +31 очень
душно
1015.2 1013.5
00 20.08 В 3 4000 м 3/0
[Ac trans]
+23.2 +21.7 91 +31 +31 очень
душно
1014.8 1013.1
03 20.08 В 2 20 км 4/0
[Ac trans]
+22.2 +21.0 93 +29 +29 очень
душно
1015.0 1013.3 +21.9
06 20.08 В 1 20 км 6/3 600 м
[Cb cap Ac trans]
+26.7 +22.6 78 +35 +40 очень
душно
1015.7 1014.0
09 20.08 ЮЗ 2 10 км 3/3 600 м
[Cb cap]
+27.8 +23.3 77 +38 +49 очень
душно
1015.2 1013.5
12 20.08 З 3 10 км 9/9 600 м
[Cb cap]
+27.8 +22.7 74 +37 +38 очень
душно
1014.5 1012.8
15 20.08 СЗ 1 10 км 9/3 600 м
[Cb cap Ac As]
+27.2 +22.5 76 +36 +36 очень
душно
1014.9 1013.2 +28.7
18 20.08 Ю 1 4000 м {гроза} 10/8 800 м
[Cb cap Ac und]
+26.4 +23.5 84 +36 +36 очень
душно
1015.8 1014.1
21 20.08 В 2 4000 м 10/10 1350 м
[Sc]
+25.4 +23.6 90 +35 +35 очень
душно
1015.4 1013.7
00 21.08 штиль 0 4000 м 6/0
[Ac trans]
+24.6 +22.5 88 +32 +32 очень
душно
1014.0 1012.3
03 21.08 СВ 3 20 км 8/3 600 м
[Sc diur, vesp Ac As]
+23.4 +21.3 88 +31 +31 очень
душно
1014.1 1012.4 +23.0
06 21.08 Ю 1 20 км 6/6 600 м
[Cb cap]
+27.0 +22.9 78 +36 +39 очень
душно
1013.3 1011.6
09 21.08 ЮЗ 2 10 км 9/9 1140 м
[Cb cap]
+27.0 +23.2 80 +36 +38 очень
душно
1012.3 1010.6
12 21.08 З 7 20 км 1/1 600 м
[Cu hum]
+28.0 +23.4 76 +38 +41 очень
душно
1010.4 1008.7
15 21.08 З 6
{10}
10 км 6/1 300 м
[Cu hum Ci fib]
+27.2 +23.4 80 +37 +37 очень
душно
1008.9 1007.2 +28.3
18 21.08 ЮЗ 3
{10}
4000 м гроза, ливневой дождь 10/6 930 м
[Cb cap Ac und]
+26.4 +23.6 85 +36 +36 очень
душно
1009.5 1007.8
21 21.08 В 3 4000 м гроза без осадков {ливн. осадки} 10/6 1000 м
[Cb cap Ac und]
+25.5 +23.8 90 +35 +35 очень
душно
1010.4 1008.7
00 22.08 З 1 4000 м {гроза, ливн. осадки} 10/10 330 м
[Cb cap]
+25.9 +24.0 89 +36 +36 очень
душно
1010.7 1009.0
03 22.08 СВ 3 10 км {гроза} 10/6 800 м
[Cb cap Ac und]
+24.0 +22.2 90 +31 +31 очень
душно
1010.1 1008.4 +23.5 1
06 22.08 СВ 2 10 км {гроза} 9/9 1000 м
[Sc]
+27.4 +23.3 78 +37 +38 очень
душно
1010.6 1008.9
09 22.08 ЮЗ 3 20 км 9/1 600 м
[Cu hum Ac trans Ci fib]
+28.6 +22.8 71 +38 +45 очень
душно
1009.8 1008.1
12 22.08 ЮЗ 4 10 км 10/3 600 м
[Cu Sc Ci fib]
+28.5 +23.7 75 +39 +43 очень
душно
1010.7 1009.0
15 22.08 З 3 10 км 9/8 630 м
[Sc Ac trans]
+27.0 +23.5 81 +37 +37 очень
душно
1010.2 1008.5 +29.9
18 22.08 СЗ 1 4000 м 10/10 930 м
[Sc]
+26.3 +23.8 86 +36 +36 очень
душно
1011.6 1009.9
21 22.08 СВ 1 4000 м зарница 10/10 870 м
[Cb cap]
+25.7 +23.5 88 +35 +35 очень
душно
1010.9 1009.2
00 23.08 ЮВ 1 4000 м слаб. ливневой дождь, в посл. час гроза 10/10 360 м
[Cb cap]
+25.0 +22.8 88 +33 +33 очень
душно
1011.1 1009.4
03 23.08 В 2 20 км {гроза, ливн. осадки} 9/1 600 м
[Sc Ac trans Ci fib]
+23.8 +22.6 93 +31 +31 очень
душно
1010.9 1009.2 +23.6 0.3
06 23.08 В 2 10 км {гроза, ливн. осадки} 10/4 840 м
[Cb cap Ac trans]
+25.6 +21.2 77 +32 +34 очень
душно
1012.4 1010.7
09 23.08 ЮЗ 2 10 км 10/3 600 м
[Cu med, cong Ac trans]
+27.7 +21.6 69 +35 +40 очень
душно
1012.2 1010.5
12 23.08 Ю 2 10 км 10/3 600 м
[Sc Ac trans Ci fib]
+28.1 +22.2 70 +37 +40 очень
душно
1012.4 1010.7
15 23.08 З 3 10 км гроза без осадков 10/3 600 м
[Cb cap Ac trans Ci fib]
+27.1 +23.5 81 +37 +37 очень
душно
1011.8 1010.1 +28.9 0.0

 

Местоположение метеостанции Сочи аэропорт (Адлер) (Краснодарский край, Россия): широта 43.43 долгота 39.90 высота над уровнем моря 15 м.

В архиве по умолчанию представлена погода в Сочи аэропорт (Адлере) за последнюю неделю. Архивные данные за месяц целиком и за предыдущие месяцы, начиная с января 2011 года, Вы можете получить, выбрав интересующий диапазон дат из раскрывающегося списка и нажав кнопку "Ввод!".


*Определитесь, кто Вы:
робот инопланетянин человек

Внимание! Время в таблицах - всемирное. Для получения местного времени необходимо прибавить поправку, которая равна 3 ч.

Смотрите также архив погоды в соседних городах и на ближайших метеорологических станциях:

Погода в Имеретинке (Краснодарский край, Россия) (5 км)
Погода в Сочи (Краснодарский край, Россия) (20 км)
Погода в Кепше (Краснодарский край, Россия) (24 км)
Погода в Красной Поляне (Краснодарский край, Россия) (37 км)
Погода в Горная Карусель 1500 (Краснодарский край, Россия) (40 км)
Погода в Горная Карусель 1000 (Краснодарский край, Россия) (40 км)
Погода на Кордоне Лаура (Краснодарский край, Россия) (44 км)
Погода в Солох Ауле (Краснодарский край, Россия) (47 км)
Погода в Кичмае (Краснодарский край, Россия) (54 км)
Погода в Гузерипле (Адыгея, Россия) (66 км)

Пояснения к столбцам:

Ветер - указаны скорость ветра в м/с - средняя за 10 мин, порывы в срок и между сроками (в фигурных скобках) и направление, откуда дует ветер: С - северный, СВ - северо-восточный, В - восточный, ЮВ - юго-восточный, Ю - южный, ЮЗ - юго-западный, З - западный, СЗ - северо-западный.
Видимость - горизонтальная дальность видимости в метрах или километрах. При видимости от 1 до 10 км при отсутствии осадков обычно наблюдается дымка, при ухудшении видимости до 1 км и менее - туман. В сухую погоду видимость может ухудшаться дымом, пылью или мглою.
Явления - указаны атмосферные явления, наблюдавшиеся в срок или в последний час перед сроком; фигурными скобками обозначены явления, наблюдавшиеся между сроками (за 1-3 часа до срока); квадратными скобками обозначены град или гололедные отложения с указанием их диаметра в мм.
Облачность - указаны через наклонную черту общая и нижняя облачность в баллах и высота нижней границы облаков в метрах; квадратными скобками обозначены формы облаков: Ci - перистые, Cs - перисто-слоистые, Cc - перисто-кучевые, Ac - высококучевые, As - высокослоистые, Sc - слоисто-кучевые, Ns - слоисто-дождевые, Cu - кучевые, Cb - кучево-дождевые. Подробнее классификацию облаков см. в Атласе облаков (PDF).
T - Температура воздуха - температура, измеренная на высоте 2 м над землей.
Td - Температура точки росы - температура, при понижении до которой содержащийся в воздухе водяной пар достигнет насыщения.
f - Относительная влажность воздуха - влажноcть воздуха, измеренная на высоте 2 м над землей.
Te - Эффективная температура - температура, которую ощущает одетый по сезону человек в тени. Характеристика душности погоды. При расчете учитывается влияние влажности воздуха и скорости ветра на теплоощущения человека.
Tes - Эффективная температура на солнце - температура, которую ощущает человек, с поправкой на солнечный нагрев. Характеристика знойности погоды. Зависит от высоты солнца над горизонтом, облачности и скорости ветра. Ночью, в пасмурную погоду, а также при ветре 12 м/с и более поправка равна нулю.
P - Атмосферное давление - приведенное к уровню моря атмосферное давление.
Po - Атмосферное давление - измеренное на уровне метеостанции атмосферное давление.
Tmin - Минимальная температура - минимум температуры воздуха на высоте 2 м над землей.
Tmax - Максимальная температура - максимум температуры воздуха на высоте 2 м над землей.
R - Количество осадков - Количество выпавших осадков за период времени, мм. При наведении курсора мыши на число - период времени, за который выпало указанное количество осадков.
R24 - Количество осадков - Количество выпавших осадков за 24 часа, мм.
S - Снежный покров - Высота снежного покрова, см. При наведении курсора мыши на число - состояние снежного покрова и степень покрытия местности в баллах.